[[{"header":{"parameterUnit":"m.s-1","parameterCategory":1,"la1":30.2992,"la2":30.254,"lo1":-89.0895,"lo2":-89.0443,"dy":0.0025,"dx":0.0025,"nx":19,"ny":19,"refTime":"2026-04-26T09:00:00:Z","depth":0,"parameterNumber":2,"parameterNumberName":"U-component_of_WINDS"},"data":[0,0,0,-3.1748,-3.175,-3.1835,-3.1836,-3.1947,-3.1948,0,0,0,0,0,0,0,0,0,0,0,-3.1723,-3.1724,-3.1748,-3.175,-3.1835,-3.1836,-3.1946,-3.1948,0,0,0,0,0,0,0,0,0,0,0,-3.1723,-3.1724,-3.1725,-3.1751,-3.1835,-3.1836,-3.1946,-3.1881,0,0,0,0,0,0,0,0,0,0,-3.1798,-3.1776,-3.1724,-3.1725,-3.1751,-3.1835,-3.1836,-3.1878,-3.1885,-3.1909,0,-3.1929,0,-3.194,-3.1955,-3.1956,0,0,0,-3.175,-3.177,-3.1792,-3.1725,-3.1752,-3.1835,-3.1797,-3.1882,-3.189,-3.1918,-3.1931,-3.1935,-3.1942,-3.1956,-3.1956,-3.2093,-3.2094,0,0,-3.1745,-3.1739,-3.1787,-3.1798,-3.1784,-3.1794,-3.1799,-3.1887,-3.19,-3.1931,-3.1937,-3.1944,-3.1957,-3.1958,-3.2093,-3.2094,0,0,0,-3.1732,-3.1736,-3.1756,-3.1793,-3.1808,-3.1797,-3.1803,-3.1896,-3.1904,-3.1939,-3.1945,-3.1957,-3.1959,-3.2092,-3.2093,-3.212,0,0,0,-3.1729,-3.1728,-3.1754,-3.1751,-3.1807,-3.1853,-3.181,-3.1898,-3.1908,-3.1945,-3.1957,-3.196,-3.2091,-3.2093,-3.2118,-3.2134,0,0,0,-3.1718,-3.1727,-3.1739,-3.1751,-3.1787,-3.1852,-3.1864,-3.19,-3.1912,-3.1956,-3.196,-3.2091,-3.2092,-3.2116,-3.213,-3.2168,0,0,0,-3.1704,-3.1761,-3.174,-3.1807,-3.1787,-3.1868,-3.1864,-3.1925,-3.1966,-3.1958,-3.2091,-3.2093,-3.2115,-3.2128,-3.2166,-3.2199,-3.2212,0,0,-3.1773,-3.1769,-3.181,-3.1793,-3.1877,-3.1856,-3.1945,-3.1987,-3.1997,-3.2061,-3.2064,-3.2119,-3.213,-3.2168,-3.2289,-3.23,0,0,0,-3.1829,-3.1858,-3.1882,-3.1921,-3.1956,-3.1987,-3.2017,-3.2034,-3.2089,-3.2028,-3.2143,-3.215,-3.2173,-3.2189,-3.2197,-3.2217,-3.21,-3.21,-3.21,-3.1917,-3.1928,-3.1995,-3.2016,-3.2055,-3.2086,-3.2119,-3.2146,-3.2144,-3.2172,-3.219,-3.2263,-3.2281,-3.2288,-3.2309,-3.2209,-3.2209,-3.2209,-3.2209,-3.202,-3.2062,-3.2061,-3.2125,-3.2136,-3.2191,-3.2225,-3.2222,-3.2275,-3.2249,-3.2269,-3.2239,-3.2299,-3.2318,-3.2211,-3.2211,-3.2211,-3.221,-3.221,-3.2078,-3.21,-3.212,-3.2179,-3.2224,-3.2244,-3.2295,-3.2303,-3.2311,-3.2332,-3.2353,-3.2352,-3.2353,-3.2341,-3.2342,-3.2342,-3.2342,-3.2342,-3.2342,-3.2131,-3.2152,-3.2194,-3.2238,-3.2265,-3.2302,-3.2337,-3.2364,-3.2397,-3.2399,-3.2399,-3.2395,-3.2303,-3.228,-3.2346,-3.2346,-3.2345,-3.2345,-3.2345,-3.2229,-3.2209,-3.2274,-3.2302,-3.2355,-3.2399,-3.241,-3.2465,-3.2489,-3.2515,-3.2508,-3.2439,-3.2435,-3.2428,-3.2409,-3.2505,-3.2505,-3.2505,-3.2505,-3.2279,-3.2278,-3.2348,-3.2392,-3.2435,-3.2452,-3.2527,-3.2556,-3.2582,-3.2597,-3.2585,-3.2561,-3.2553,-3.2554,-3.2544,-3.2526,-3.265,-3.265,-3.2651,-3.234,-3.2345,-3.2406,-3.2432,-3.2475,-3.2511,-3.2582,-3.2634,-3.2659,-3.2657,-3.261,-3.2604,-3.2564,-3.2551,-3.2546,-3.253,-3.2498,0,0]},{"header":{"parameterUnit":"m.s-1","parameterCategory":1,"la1":30.2992,"la2":30.254,"lo1":-89.0895,"lo2":-89.0443,"dy":0.0025,"dx":0.0025,"nx":19,"ny":19,"refTime":"2026-04-26T09:00:00:Z","depth":0,"parameterNumber":3,"parameterNumberName":"V-component_of_WINDS"},"data":[0,0,0,4.2112,4.2114,4.2201,4.2201,4.2292,4.2293,0,0,0,0,0,0,0,0,0,0,0,4.2077,4.2078,4.2112,4.2114,4.2201,4.2201,4.2292,4.2293,0,0,0,0,0,0,0,0,0,0,0,4.2077,4.2078,4.2078,4.2115,4.2201,4.2201,4.2292,4.2233,0,0,0,0,0,0,0,0,0,0,4.2152,4.2111,4.2077,4.2078,4.2115,4.2201,4.2201,4.223,4.2236,4.2245,0,4.2253,0,4.2274,4.2298,4.2298,0,0,0,4.212,4.2105,4.2138,4.2078,4.2116,4.22,4.2163,4.2234,4.2241,4.2253,4.2254,4.2258,4.2276,4.2298,4.2299,4.2337,4.2337,0,0,4.2115,4.2087,4.2133,4.2142,4.2131,4.2161,4.2166,4.2238,4.2236,4.2255,4.2261,4.2277,4.2299,4.2299,4.2338,4.2337,0,0,0,4.2098,4.2083,4.2114,4.2138,4.2155,4.2163,4.2169,4.2233,4.2246,4.2262,4.2279,4.2299,4.23,4.2338,4.2337,4.2307,0,0,0,4.2095,4.2073,4.2112,4.2095,4.2154,4.2196,4.2162,4.2241,4.225,4.2278,4.2299,4.2301,4.2338,4.2338,4.2308,4.2297,0,0,0,4.2075,4.2071,4.208,4.2093,4.213,4.2195,4.2213,4.2244,4.226,4.2298,4.2301,4.2338,4.2338,4.2309,4.2299,4.2301,0,0,0,4.2044,4.2049,4.2079,4.2092,4.2129,4.2177,4.2212,4.2248,4.2277,4.23,4.2338,4.2337,4.231,4.23,4.2302,4.2298,4.2294,0,0,4.2034,4.2047,4.2056,4.2086,4.2122,4.2166,4.2196,4.2247,4.2275,4.2314,4.2316,4.2308,4.2299,4.2301,4.2278,4.2274,0,0,0,4.2044,4.205,4.2066,4.2095,4.2137,4.2172,4.2223,4.2242,4.2278,4.229,4.231,4.2305,4.2307,4.2307,4.2304,4.2308,4.2336,4.2336,4.2336,4.1987,4.2027,4.2046,4.2096,4.2123,4.2178,4.2202,4.2238,4.2265,4.2269,4.2281,4.2263,4.2262,4.226,4.2263,4.2282,4.2282,4.2282,4.2281,4.1978,4.1994,4.2036,4.207,4.211,4.2138,4.219,4.221,4.224,4.2257,4.226,4.2276,4.2255,4.226,4.228,4.228,4.228,4.228,4.228,4.1946,4.1961,4.1988,4.2036,4.2067,4.2117,4.2146,4.218,4.2212,4.2216,4.2234,4.2234,4.224,4.2222,4.2222,4.2222,4.2222,4.2222,4.2222,4.1903,4.1934,4.1956,4.2005,4.2029,4.2065,4.2122,4.2146,4.2181,4.2203,4.2204,4.2232,4.2246,4.2249,4.2221,4.2221,4.2221,4.2221,4.2222,4.1879,4.1892,4.1925,4.1951,4.2011,4.2041,4.2086,4.2133,4.2157,4.2171,4.2199,4.2203,4.2217,4.222,4.2223,4.219,4.219,4.219,4.219,4.1853,4.1865,4.191,4.1948,4.1989,4.2035,4.207,4.2114,4.216,4.2178,4.2188,4.2194,4.2196,4.2209,4.2212,4.2215,4.2181,4.2181,4.2181,4.1842,4.186,4.1885,4.1935,4.1986,4.2028,4.2063,4.2103,4.2157,4.2182,4.2193,4.2193,4.2204,4.2206,4.2229,4.2233,4.224,0,0]}]]